Simultaneous Nadir Overpasses (SNOs) Predictions

Prediction of SNOs between METOP-A and NOAA-19 Satellite Orbit:

Table of predicted SNOs for the next 14.0 days since TLE Epoch: 1/19/2014
Index Date (METOP-A) Time (METOP-A) Lat,Lon (METOP-A) SZA (METOP-A ) Date (NOAA-19) Time (NOAA-19) Lat,Lon (NOAA-19) SZA (NOAA-19 ) Distance(km) Time Diff (sec)
1 01/26/2014 14:13:49 73.84, -39.56 92.58 01/26/2014 14:12:42 73.85, -39.45 92.60 3.59 67
2 01/26/2014 15:04:30 -73.86, 127.81 87.42 01/26/2014 15:03:38 -73.86, 127.77 87.40 1.48 52
3 01/26/2014 15:55:11 73.81, -64.96 92.54 01/26/2014 15:54:46 73.84, -64.97 92.58 3.55 25
4 01/26/2014 16:45:52 -73.83, 102.42 87.45 01/26/2014 16:45:41 -73.81, 102.38 87.47 2.65 11
5 01/26/2014 17:36:33 73.79, -90.35 92.50 01/26/2014 17:36:49 73.79, -90.36 92.50 0.52 16
6
